Private Wetterstation aus Reiser
Wetterdaten: aktuell Donnerstag, 02.07.2020 21:30
Datum Zeit Auentemp,. T(5cm) Feuchte A. Luftdruck Regen Wind Richtung Richtung Sonnenschein Taupunkt Windchill Windben
02.07.2020 21:30 20,4 C 19,7 C 82 % 1009,8 hPa 0,0 l/m 0,0 km/h O 90 0 min 17,2 C 20,4 C 0,0 km/h
02.07.2020 21:25 20,5 C 19,7 C 82 % 1009,4 hPa 0,0 l/m 0,0 km/h O-SO 112 0 min 17,3 C 20,5 C 0,0 km/h
02.07.2020 21:20 20,5 C 19,8 C 82 % 1009,4 hPa 0,0 l/m 0,0 km/h W-SW 247 0 min 17,3 C 20,5 C 0,0 km/h
02.07.2020 21:15 20,6 C 19,9 C 82 % 1009,4 hPa 0,0 l/m 0,0 km/h SW 225 0 min 17,4 C 20,6 C 0,0 km/h
02.07.2020 21:10 20,7 C 19,8 C 81 % 1009,4 hPa 0,0 l/m 0,0 km/h O 90 0 min 17,3 C 20,7 C 0,0 km/h
02.07.2020 21:05 20,7 C 19,7 C 81 % 1009,4 hPa 0,0 l/m 0,0 km/h SO 135 0 min 17,3 C 20,7 C 0,0 km/h
02.07.2020 21:00 20,9 C 19,6 C 81 % 1009,4 hPa 0,0 l/m 0,0 km/h W-SW 247 0 min 17,5 C 20,9 C 0,0 km/h
02.07.2020 20:55 21,0 C 19,7 C 81 % 1009,4 hPa 0,0 l/m 0,0 km/h W 270 0 min 17,6 C 21,0 C 0,0 km/h
02.07.2020 20:50 21,0 C 19,9 C 81 % 1009,4 hPa 0,0 l/m 0,0 km/h NW 315 0 min 17,6 C 21,0 C 0,0 km/h
02.07.2020 20:45 21,1 C 19,9 C 81 % 1009,5 hPa 0,0 l/m 0,0 km/h W 270 0 min 17,7 C 21,1 C 0,0 km/h
02.07.2020 20:40 21,3 C 20,3 C 81 % 1009,5 hPa 0,0 l/m 0,0 km/h W 270 0 min 17,9 C 21,3 C 0,0 km/h
02.07.2020 20:35 21,2 C 20,4 C 80 % 1009,5 hPa 0,0 l/m 0,0 km/h W-SW 247 0 min 17,6 C 21,2 C 0,0 km/h
02.07.2020 20:30 21,4 C 20,3 C 80 % 1009,5 hPa 0,0 l/m 0,0 km/h S-SO 157 0 min 17,8 C 21,4 C 0,0 km/h
02.07.2020 20:25 21,5 C 20,3 C 79 % 1009,5 hPa 0,0 l/m 0,0 km/h W 270 0 min 17,7 C 21,5 C 0,0 km/h
02.07.2020 20:20 21,5 C 20,3 C 79 % 1009,5 hPa 0,0 l/m 0,0 km/h W 270 0 min 17,7 C 21,5 C 0,0 km/h
02.07.2020 20:15 21,6 C 20,4 C 78 % 1009,5 hPa 0,0 l/m 0,0 km/h SW 225 0 min 17,6 C 21,6 C 0,0 km/h
02.07.2020 20:10 21,7 C 20,3 C 78 % 1009,5 hPa 0,0 l/m 0,0 km/h W 270 0 min 17,7 C 21,7 C 0,0 km/h
02.07.2020 20:05 21,7 C 20,5 C 78 % 1009,3 hPa 0,0 l/m 0,0 km/h NW 315 0 min 17,7 C 21,7 C 0,0 km/h
02.07.2020 20:00 21,8 C 20,4 C 78 % 1009,3 hPa 0,0 l/m 0,0 km/h W-SW 247 0 min 17,8 C 21,8 C 0,0 km/h
02.07.2020 19:55 21,8 C 20,5 C 77 % 1009,3 hPa 0,0 l/m 0,0 km/h W-NW 292 0 min 17,6 C 21,8 C 0,0 km/h
02.07.2020 19:50 21,8 C 20,5 C 77 % 1009,3 hPa 0,0 l/m 0,0 km/h S-SO 157 0 min 17,6 C 21,8 C 0,0 km/h
02.07.2020 19:45 21,8 C 20,5 C 77 % 1009,1 hPa 0,0 l/m 0,0 km/h W-SW 247 0 min 17,6 C 21,8 C 0,0 km/h
02.07.2020 19:40 21,9 C 20,7 C 77 % 1009,1 hPa 0,0 l/m 0,0 km/h W-SW 247 0 min 17,7 C 21,9 C 0,0 km/h
02.07.2020 19:35 21,9 C 20,7 C 77 % 1009,1 hPa 0,0 l/m 0,0 km/h NW 315 0 min 17,7 C 21,9 C 0,0 km/h
02.07.2020 19:30 22,0 C 20,7 C 77 % 1009,1 hPa 0,0 l/m 0,0 km/h W-SW 247 0 min 17,8 C 22,0 C 0,0 km/h
02.07.2020 19:25 22,1 C 20,7 C 77 % 1008,9 hPa 0,0 l/m 0,0 km/h SW 225 0 min 17,9 C 22,1 C 0,0 km/h
02.07.2020 19:20 22,0 C 20,6 C 77 % 1008,9 hPa 0,0 l/m 0,0 km/h S 180 0 min 17,8 C 22,0 C 0,0 km/h
02.07.2020 19:18 22,0 C 20,6 C 77 % 1008,9 hPa 0,0 l/m 0,0 km/h S 180 0 min 17,8 C 22,0 C 0,0 km/h
02.07.2020 19:13 21,9 C 20,4 C 76 % 1008,9 hPa 0,0 l/m 0,0 km/h W-SW 247 0 min 17,5 C 21,9 C 0,0 km/h
02.07.2020 19:08 22,1 C 20,5 C 76 % 1008,9 hPa 0,0 l/m 0,2 km/h W 270 0 min 17,7 C 22,1 C 0,0 km/h
02.07.2020 19:03 22,2 C 20,5 C 76 % 1008,7 hPa 0,0 l/m 0,2 km/h W-SW 247 0 min 17,8 C 22,2 C 0,0 km/h
02.07.2020 18:58 22,2 C 20,7 C 76 % 1008,7 hPa 0,0 l/m 0,0 km/h N-NW 337 0 min 17,8 C 22,2 C 0,0 km/h
02.07.2020 18:53 22,3 C 20,8 C 75 % 1008,7 hPa 0,0 l/m 0,0 km/h W-SW 247 0 min 17,6 C 22,3 C 0,0 km/h
02.07.2020 18:48 22,5 C 20,9 C 75 % 1008,7 hPa 0,0 l/m 0,0 km/h NW 315 0 min 17,8 C 22,5 C 0,0 km/h
02.07.2020 18:43 22,5 C 21,1 C 75 % 1008,5 hPa 0,0 l/m 0,0 km/h W 270 0 min 17,8 C 22,5 C 0,0 km/h
02.07.2020 18:38 22,6 C 21,0 C 75 % 1008,5 hPa 0,0 l/m 0,0 km/h O-SO 112 0 min 17,9 C 22,6 C 0,0 km/h
02.07.2020 18:33 22,5 C 21,0 C 75 % 1008,5 hPa 0,0 l/m 0,0 km/h NW 315 0 min 17,8 C 22,5 C 0,0 km/h
02.07.2020 18:28 22,4 C 20,9 C 76 % 1008,5 hPa 0,0 l/m 0,2 km/h O-SO 112 0 min 18,0 C 22,4 C 2,1 km/h
02.07.2020 18:23 21,9 C 20,6 C 76 % 1008,8 hPa 0,0 l/m 0,0 km/h S-SW 202 0 min 17,5 C 21,9 C 0,0 km/h
02.07.2020 18:18 21,8 C 20,4 C 76 % 1008,8 hPa 0,7 l/m 0,0 km/h O-NO 67 0 min 17,4 C 21,8 C 0,0 km/h
02.07.2020 18:13 21,6 C 20,4 C 76 % 1008,8 hPa 0,0 l/m 0,0 km/h SO 135 0 min 17,2 C 21,6 C 0,0 km/h
02.07.2020 18:08 21,3 C 20,3 C 76 % 1008,8 hPa 0,0 l/m 0,0 km/h S-SO 157 0 min 16,9 C 21,3 C 0,0 km/h
02.07.2020 18:03 21,2 C 20,3 C 75 % 1009,3 hPa 0,0 l/m 0,0 km/h SW 225 0 min 16,6 C 21,2 C 0,0 km/h
02.07.2020 17:58 21,2 C 20,2 C 75 % 1009,3 hPa 0,0 l/m 0,0 km/h NO 45 0 min 16,6 C 21,2 C 0,0 km/h
02.07.2020 17:53 21,5 C 20,0 C 74 % 1009,3 hPa 0,0 l/m 0,0 km/h SO 135 0 min 16,7 C 21,5 C 0,0 km/h
02.07.2020 17:48 21,6 C 20,2 C 74 % 1009,3 hPa 0,0 l/m 0,0 km/h W-SW 247 0 min 16,8 C 21,6 C 0,0 km/h
02.07.2020 17:43 21,6 C 20,1 C 74 % 1009,3 hPa 0,7 l/m 0,0 km/h SO 135 0 min 16,8 C 21,6 C 0,0 km/h
02.07.2020 17:38 21,7 C 20,4 C 73 % 1009,3 hPa 0,0 l/m 0,0 km/h S-SO 157 0 min 16,6 C 21,7 C 0,0 km/h
02.07.2020 17:33 21,7 C 20,3 C 73 % 1009,3 hPa 0,0 l/m 0,2 km/h S-SO 157 0 min 16,6 C 21,7 C 0,0 km/h
02.07.2020 17:28 21,8 C 20,6 C 72 % 1009,3 hPa 0,0 l/m 0,3 km/h N-NO 22 0 min 16,5 C 21,8 C 0,0 km/h
02.07.2020 17:23 22,0 C 20,5 C 71 % 1009,1 hPa 0,0 l/m 0,3 km/h S 180 0 min 16,5 C 22,0 C 1,8 km/h
02.07.2020 17:18 22,1 C 20,8 C 71 % 1009,1 hPa 0,0 l/m 0,3 km/h W-SW 247 0 min 16,6 C 22,1 C 0,0 km/h
02.07.2020 17:13 22,2 C 21,1 C 71 % 1009,1 hPa 0,7 l/m 0,6 km/h S 180 0 min 16,7 C 22,2 C 0,0 km/h
02.07.2020 17:08 22,4 C 21,7 C 69 % 1009,1 hPa 0,7 l/m 0,8 km/h SW 225 0 min 16,4 C 22,4 C 2,4 km/h
02.07.2020 17:03 22,8 C 22,2 C 67 % 1008,8 hPa 2,1 l/m 1,0 km/h SW 225 0 min 16,3 C 22,8 C 2,1 km/h
02.07.2020 16:58 23,4 C 23,1 C 65 % 1008,8 hPa 0,7 l/m 1,8 km/h W 270 0 min 16,4 C 23,4 C 0,0 km/h
02.07.2020 16:53 23,9 C 24,1 C 62 % 1008,8 hPa 0,0 l/m 1,9 km/h S 180 0 min 16,2 C 23,9 C 3,2 km/h
02.07.2020 16:48 24,6 C 25,2 C 59 % 1008,8 hPa 0,0 l/m 1,1 km/h W-SW 247 0 min 16,0 C 24,6 C 15,6 km/h
02.07.2020 16:43 24,9 C 25,5 C 57 % 1007,6 hPa 0,0 l/m 0,2 km/h O-NO 67 0 min 15,8 C 24,9 C 2,1 km/h
02.07.2020 16:38 25,1 C 25,7 C 54 % 1007,6 hPa 0,0 l/m 0,3 km/h SW 225 0 min 15,1 C 25,1 C 0,0 km/h
02.07.2020 16:33 25,3 C 25,7 C 53 % 1007,6 hPa 0,0 l/m 0,3 km/h SW 225 0 min 15,0 C 25,3 C 0,0 km/h
02.07.2020 16:28 25,6 C 26,0 C 53 % 1007,6 hPa 0,0 l/m 0,2 km/h W-SW 247 0 min 15,3 C 25,6 C 0,0 km/h
02.07.2020 16:23 25,8 C 26,3 C 53 % 1007,8 hPa 0,0 l/m 0,3 km/h SW 225 0 min 15,5 C 25,8 C 0,0 km/h
02.07.2020 16:18 26,1 C 26,6 C 52 % 1007,8 hPa 0,0 l/m 0,5 km/h W-SW 247 5 min 15,5 C 26,1 C 0,0 km/h
02.07.2020 16:13 26,2 C 26,9 C 52 % 1007,8 hPa 0,0 l/m 0,5 km/h W-SW 247 5 min 15,6 C 26,2 C 3,1 km/h
02.07.2020 16:08 25,9 C 26,2 C 52 % 1007,8 hPa 0,0 l/m 0,6 km/h S-SW 202 0 min 15,3 C 25,9 C 0,0 km/h
02.07.2020 16:03 25,9 C 26,3 C 50 % 1007,9 hPa 0,0 l/m 0,8 km/h S-SW 202 0 min 14,7 C 25,9 C 2,1 km/h
02.07.2020 15:58 26,3 C 26,6 C 51 % 1007,9 hPa 0,0 l/m 0,8 km/h O 90 5 min 15,3 C 26,3 C 0,0 km/h
02.07.2020 15:53 26,5 C 26,9 C 50 % 1007,9 hPa 0,0 l/m 1,0 km/h O-NO 67 5 min 15,2 C 26,5 C 2,6 km/h
02.07.2020 15:48 26,9 C 27,1 C 49 % 1007,9 hPa 0,0 l/m 1,1 km/h W 270 5 min 15,3 C 26,9 C 0,0 km/h
02.07.2020 15:43 27,0 C 27,0 C 50 % 1007,8 hPa 0,0 l/m 1,6 km/h O-SO 112 5 min 15,7 C 27,0 C 2,4 km/h
02.07.2020 15:38 26,6 C 26,4 C 49 % 1007,8 hPa 0,0 l/m 1,1 km/h N 360 5 min 15,0 C 26,6 C 1,6 km/h
02.07.2020 15:33 26,3 C 26,2 C 50 % 1007,8 hPa 0,0 l/m 0,3 km/h SW 225 0 min 15,0 C 26,3 C 1,9 km/h
02.07.2020 15:28 26,3 C 26,3 C 50 % 1007,8 hPa 0,0 l/m 0,2 km/h NW 315 0 min 15,0 C 26,3 C 0,0 km/h
02.07.2020 15:23 26,3 C 26,3 C 50 % 1007,8 hPa 0,0 l/m 0,5 km/h S-SW 202 0 min 15,0 C 26,3 C 1,8 km/h
02.07.2020 15:18 26,4 C 26,5 C 49 % 1007,8 hPa 0,0 l/m 0,8 km/h SO 135 0 min 14,8 C 26,4 C 0,0 km/h
02.07.2020 15:13 26,6 C 26,5 C 48 % 1007,8 hPa 0,0 l/m 1,1 km/h SW 225 5 min 14,7 C 26,6 C 3,4 km/h
02.07.2020 15:08 26,9 C 26,7 C 48 % 1007,8 hPa 0,0 l/m 1,3 km/h SW 225 5 min 14,9 C 26,9 C 0,0 km/h
02.07.2020 15:03 27,2 C 26,9 C 48 % 1008,1 hPa 0,0 l/m 1,9 km/h S 180 5 min 15,2 C 27,2 C 2,1 km/h
02.07.2020 14:58 27,3 C 26,7 C 47 % 1008,1 hPa 0,0 l/m 1,8 km/h O-SO 112 5 min 15,0 C 27,3 C 2,1 km/h
02.07.2020 14:53 27,4 C 26,6 C 48 % 1008,1 hPa 0,0 l/m 1,8 km/h NO 45 5 min 15,4 C 27,4 C 5,0 km/h
02.07.2020 14:48 27,3 C 26,4 C 48 % 1008,1 hPa 0,0 l/m 1,4 km/h S 180 5 min 15,3 C 27,3 C 2,6 km/h
02.07.2020 14:43 27,3 C 26,3 C 48 % 1008,4 hPa 0,0 l/m 1,4 km/h O 90 5 min 15,3 C 27,3 C 0,0 km/h
02.07.2020 14:38 27,1 C 26,0 C 48 % 1008,4 hPa 0,0 l/m 1,9 km/h S-SO 157 5 min 15,1 C 27,1 C 0,0 km/h
02.07.2020 14:33 27,1 C 25,9 C 48 % 1008,4 hPa 0,0 l/m 1,8 km/h S 180 5 min 15,1 C 27,1 C 4,5 km/h
02.07.2020 14:28 26,8 C 25,6 C 48 % 1008,4 hPa 0,0 l/m 1,1 km/h O-SO 112 5 min 14,9 C 26,8 C 0,0 km/h
02.07.2020 14:23 26,7 C 25,5 C 47 % 1008,2 hPa 0,0 l/m 1,1 km/h W-SW 247 5 min 14,4 C 26,7 C 0,0 km/h
02.07.2020 14:18 26,9 C 25,6 C 48 % 1008,2 hPa 0,0 l/m 1,3 km/h SW 225 5 min 14,9 C 26,9 C 0,0 km/h
02.07.2020 14:13 27,3 C 25,7 C 48 % 1008,2 hPa 0,0 l/m 1,4 km/h S 180 5 min 15,3 C 27,3 C 3,2 km/h
02.07.2020 14:08 26,8 C 25,5 C 47 % 1008,2 hPa 0,0 l/m 1,6 km/h O 90 5 min 14,5 C 26,8 C 1,8 km/h
02.07.2020 14:03 26,9 C 25,3 C 49 % 1008,4 hPa 0,0 l/m 1,6 km/h S-SO 157 5 min 15,3 C 26,9 C 1,9 km/h
02.07.2020 13:58 26,9 C 25,1 C 50 % 1008,4 hPa 0,0 l/m 1,9 km/h O-NO 67 5 min 15,6 C 26,9 C 5,8 km/h
02.07.2020 13:53 26,9 C 25,0 C 50 % 1008,4 hPa 0,0 l/m 1,6 km/h W 270 5 min 15,6 C 26,9 C 2,1 km/h
02.07.2020 13:48 26,7 C 24,9 C 50 % 1008,4 hPa 0,0 l/m 1,4 km/h N-NW 337 5 min 15,4 C 26,7 C 1,6 km/h
02.07.2020 13:43 26,6 C 24,7 C 51 % 1008,9 hPa 0,0 l/m 1,8 km/h W-SW 247 5 min 15,6 C 26,6 C 4,0 km/h
02.07.2020 13:38 26,3 C 24,5 C 52 % 1008,9 hPa 0,0 l/m 2,4 km/h W-SW 247 5 min 15,6 C 26,3 C 0,0 km/h
02.07.2020 13:33 26,3 C 24,5 C 52 % 1008,9 hPa 0,0 l/m 3,1 km/h W 270 5 min 15,6 C 26,3 C 4,2 km/h
02.07.2020 13:28 26,2 C 24,4 C 51 % 1008,9 hPa 0,0 l/m 2,6 km/h W 270 5 min 15,2 C 26,2 C 9,3 km/h
02.07.2020 13:23 26,3 C 24,4 C 52 % 1008,9 hPa 0,0 l/m 1,9 km/h SW 225 5 min 15,6 C 26,3 C 9,5 km/h
02.07.2020 13:18 26,2 C 24,4 C 51 % 1008,9 hPa 0,0 l/m 1,8 km/h S 180 5 min 15,2 C 26,2 C 2,7 km/h
02.07.2020 13:13 26,2 C 24,3 C 53 % 1008,9 hPa 0,0 l/m 1,3 km/h S-SO 157 5 min 15,8 C 26,2 C 4,2 km/h
02.07.2020 13:08 25,9 C 24,1 C 53 % 1008,9 hPa 0,0 l/m 1,9 km/h SW 225 5 min 15,6 C 25,9 C 1,9 km/h
02.07.2020 13:03 25,7 C 23,9 C 52 % 1009,0 hPa 0,0 l/m 2,6 km/h N 360 5 min 15,1 C 25,7 C 2,1 km/h
02.07.2020 12:58 25,7 C 23,8 C 52 % 1009,0 hPa 0,0 l/m 3,4 km/h W-SW 247 5 min 15,1 C 25,7 C 5,8 km/h
02.07.2020 12:53 25,7 C 23,8 C 53 % 1009,0 hPa 0,0 l/m 2,3 km/h W-NW 292 5 min 15,4 C 25,7 C 4,7 km/h
02.07.2020 12:48 25,5 C 23,5 C 55 % 1009,0 hPa 0,0 l/m 1,8 km/h W 270 5 min 15,8 C 25,5 C 5,8 km/h
02.07.2020 12:43 25,4 C 23,5 C 54 % 1008,9 hPa 0,0 l/m 1,8 km/h S 180 5 min 15,4 C 25,4 C 0,0 km/h
02.07.2020 12:38 25,9 C 23,7 C 54 % 1008,9 hPa 0,0 l/m 2,3 km/h W-SW 247 5 min 15,9 C 25,9 C 7,2 km/h
02.07.2020 12:33 25,7 C 23,6 C 54 % 1008,9 hPa 0,0 l/m 2,3 km/h N-NO 22 5 min 15,7 C 25,7 C 1,8 km/h
02.07.2020 12:28 25,8 C 23,6 C 55 % 1008,9 hPa 0,0 l/m 2,4 km/h N-NW 337 5 min 16,1 C 25,8 C 1,6 km/h
02.07.2020 12:23 25,5 C 23,3 C 56 % 1009,3 hPa 0,0 l/m 2,4 km/h S-SO 157 5 min 16,1 C 25,5 C 3,7 km/h
02.07.2020 12:18 25,3 C 23,1 C 55 % 1009,3 hPa 0,0 l/m 1,8 km/h O 90 5 min 15,6 C 25,3 C 5,0 km/h
02.07.2020 12:13 25,2 C 23,1 C 57 % 1009,3 hPa 0,0 l/m 1,1 km/h S-SO 157 5 min 16,1 C 25,2 C 2,4 km/h
02.07.2020 12:08 25,0 C 22,9 C 58 % 1009,3 hPa 0,0 l/m 1,3 km/h W-SW 247 5 min 16,1 C 25,0 C 3,1 km/h
02.07.2020 12:03 24,7 C 22,7 C 57 % 1008,9 hPa 0,0 l/m 1,6 km/h S 180 5 min 15,6 C 24,7 C 4,3 km/h
02.07.2020 11:58 24,9 C 22,7 C 58 % 1008,9 hPa 0,0 l/m 1,4 km/h NO 45 5 min 16,1 C 24,9 C 3,1 km/h
02.07.2020 11:53 24,7 C 22,5 C 59 % 1008,9 hPa 0,0 l/m 2,1 km/h O-NO 67 5 min 16,1 C 24,7 C 1,8 km/h
02.07.2020 11:48 24,4 C 22,4 C 58 % 1008,9 hPa 0,0 l/m 2,6 km/h W-SW 247 5 min 15,6 C 24,4 C 0,0 km/h
02.07.2020 11:43 24,4 C 22,5 C 58 % 1008,9 hPa 0,0 l/m 1,8 km/h O-SO 112 5 min 15,6 C 24,4 C 2,6 km/h
02.07.2020 11:38 24,1 C 22,1 C 59 % 1008,9 hPa 0,0 l/m 1,4 km/h N-NW 337 5 min 15,6 C 24,1 C 5,5 km/h
02.07.2020 11:33 23,8 C 21,9 C 60 % 1008,9 hPa 0,0 l/m 1,8 km/h S-SW 202 5 min 15,6 C 23,8 C 2,6 km/h
02.07.2020 11:28 23,6 C 21,8 C 60 % 1008,9 hPa 0,0 l/m 1,9 km/h W-NW 292 5 min 15,4 C 23,6 C 2,3 km/h
02.07.2020 11:23 23,4 C 21,7 C 60 % 1008,8 hPa 0,0 l/m 1,6 km/h S 180 5 min 15,2 C 23,4 C 4,0 km/h
02.07.2020 11:18 23,8 C 21,9 C 61 % 1008,8 hPa 0,0 l/m 1,6 km/h W-NW 292 5 min 15,8 C 23,8 C 1,6 km/h
02.07.2020 11:13 23,7 C 21,8 C 62 % 1008,8 hPa 0,0 l/m 2,1 km/h NW 315 5 min 16,0 C 23,7 C 2,4 km/h
02.07.2020 11:08 23,7 C 21,7 C 63 % 1008,8 hPa 0,0 l/m 1,9 km/h S-SO 157 5 min 16,2 C 23,7 C 4,5 km/h
02.07.2020 11:03 23,6 C 21,6 C 65 % 1008,6 hPa 0,0 l/m 0,8 km/h W-NW 292 5 min 16,6 C 23,6 C 0,0 km/h
02.07.2020 10:58 22,9 C 21,3 C 66 % 1008,6 hPa 0,0 l/m 0,5 km/h SW 225 0 min 16,2 C 22,9 C 1,6 km/h
02.07.2020 10:53 22,7 C 21,3 C 66 % 1008,6 hPa 0,0 l/m 0,8 km/h N-NW 337 0 min 16,0 C 22,7 C 0,0 km/h
02.07.2020 10:48 22,5 C 21,3 C 66 % 1008,6 hPa 0,0 l/m 1,3 km/h SW 225 5 min 15,8 C 22,5 C 0,0 km/h
02.07.2020 10:43 22,8 C 21,3 C 66 % 1008,6 hPa 0,0 l/m 1,1 km/h SW 225 5 min 16,1 C 22,8 C 0,0 km/h
02.07.2020 10:38 22,7 C 21,2 C 66 % 1008,6 hPa 0,0 l/m 1,1 km/h O-SO 112 5 min 16,0 C 22,7 C 2,1 km/h
02.07.2020 10:33 22,6 C 21,1 C 66 % 1008,6 hPa 0,0 l/m 1,4 km/h W 270 5 min 15,9 C 22,6 C 1,9 km/h
02.07.2020 10:28 22,9 C 21,1 C 65 % 1008,6 hPa 0,0 l/m 2,1 km/h SW 225 5 min 16,0 C 22,9 C 3,5 km/h
02.07.2020 10:23 23,0 C 21,0 C 65 % 1008,9 hPa 0,0 l/m 1,9 km/h W-SW 247 5 min 16,1 C 23,0 C 3,4 km/h
02.07.2020 10:18 22,8 C 20,9 C 66 % 1008,9 hPa 0,0 l/m 1,4 km/h NW 315 5 min 16,1 C 22,8 C 0,0 km/h
02.07.2020 10:13 22,7 C 20,8 C 67 % 1008,9 hPa 0,0 l/m 1,1 km/h W 270 5 min 16,2 C 22,7 C 3,4 km/h
02.07.2020 10:08 22,1 C 20,5 C 69 % 1008,9 hPa 0,0 l/m 0,8 km/h W-SW 247 5 min 16,1 C 22,1 C 1,6 km/h
02.07.2020 10:03 21,9 C 20,4 C 70 % 1008,7 hPa 0,0 l/m 1,3 km/h W-SW 247 0 min 16,2 C 21,9 C 0,0 km/h
02.07.2020 09:58 21,4 C 20,3 C 70 % 1008,7 hPa 0,0 l/m 3,2 km/h SW 225 0 min 15,7 C 21,4 C 2,3 km/h
02.07.2020 09:53 21,5 C 20,3 C 69 % 1008,7 hPa 0,0 l/m 3,7 km/h N-NO 22 0 min 15,6 C 21,5 C 7,4 km/h
02.07.2020 09:48 21,3 C 20,1 C 70 % 1008,7 hPa 0,0 l/m 2,6 km/h SO 135 0 min 15,6 C 21,3 C 6,4 km/h
02.07.2020 09:43 21,0 C 19,9 C 71 % 1008,7 hPa 0,0 l/m 1,9 km/h S 180 0 min 15,5 C 21,0 C 6,0 km/h
02.07.2020 09:38 20,9 C 19,7 C 73 % 1008,7 hPa 0,0 l/m 1,4 km/h W-NW 292 0 min 15,9 C 20,9 C 5,0 km/h
02.07.2020 09:33 20,3 C 19,5 C 74 % 1008,7 hPa 0,0 l/m 1,3 km/h W-SW 247 0 min 15,5 C 20,3 C 5,6 km/h
02.07.2020 09:28 20,1 C 19,4 C 74 % 1008,7 hPa 0,0 l/m 0,6 km/h S-SW 202 0 min 15,3 C 20,1 C 2,1 km/h
02.07.2020 09:23 20,1 C 19,5 C 75 % 1008,3 hPa 0,0 l/m 1,0 km/h O-NO 67 0 min 15,5 C 20,1 C 0,0 km/h
02.07.2020 09:18 20,1 C 19,5 C 76 % 1008,3 hPa 0,0 l/m 0,8 km/h NO 45 0 min 15,7 C 20,1 C 0,0 km/h
02.07.2020 09:13 20,0 C 19,4 C 76 % 1008,3 hPa 0,0 l/m 0,6 km/h NO 45 0 min 15,6 C 20,0 C 3,2 km/h
02.07.2020 09:08 19,8 C 19,2 C 77 % 1008,3 hPa 0,0 l/m 0,5 km/h N-NO 22 0 min 15,6 C 19,8 C 0,0 km/h
02.07.2020 09:03 19,8 C 19,3 C 78 % 1008,2 hPa 0,0 l/m 0,3 km/h SW 225 0 min 15,8 C 19,8 C 0,0 km/h
02.07.2020 08:58 19,5 C 19,1 C 78 % 1008,2 hPa 0,0 l/m 0,6 km/h SW 225 0 min 15,6 C 19,5 C 0,0 km/h
02.07.2020 08:53 19,5 C 19,1 C 78 % 1008,2 hPa 0,0 l/m 1,3 km/h O 90 0 min 15,6 C 19,5 C 0,0 km/h
02.07.2020 08:48 19,5 C 19,1 C 78 % 1008,2 hPa 0,0 l/m 1,9 km/h W 270 0 min 15,6 C 19,5 C 2,3 km/h
02.07.2020 08:43 19,5 C 19,0 C 78 % 1008,4 hPa 0,0 l/m 2,1 km/h W-NW 292 0 min 15,6 C 19,5 C 3,9 km/h
02.07.2020 08:38 19,5 C 18,9 C 79 % 1008,4 hPa 0,0 l/m 1,9 km/h S 180 0 min 15,8 C 19,5 C 3,5 km/h
02.07.2020 08:33 19,2 C 18,7 C 80 % 1008,4 hPa 0,0 l/m 1,6 km/h S 180 0 min 15,7 C 19,2 C 0,0 km/h
02.07.2020 08:28 19,2 C 18,7 C 80 % 1008,4 hPa 0,0 l/m 1,1 km/h NW 315 0 min 15,7 C 19,2 C 4,7 km/h
02.07.2020 08:23 19,1 C 18,7 C 81 % 1008,1 hPa 0,0 l/m 0,8 km/h W-NW 292 0 min 15,8 C 19,1 C 3,7 km/h
02.07.2020 08:18 19,2 C 18,7 C 81 % 1008,1 hPa 0,0 l/m 0,6 km/h W-SW 247 0 min 15,9 C 19,2 C 0,0 km/h
02.07.2020 08:13 19,1 C 18,6 C 82 % 1008,1 hPa 0,0 l/m 0,8 km/h N-NO 22 0 min 16,0 C 19,1 C 2,9 km/h
02.07.2020 08:08 18,9 C 18,5 C 82 % 1008,1 hPa 0,0 l/m 0,5 km/h N 360 0 min 15,8 C 18,9 C 5,0 km/h
02.07.2020 08:03 18,9 C 18,4 C 83 % 1008,1 hPa 0,0 l/m 0,2 km/h N-NO 22 0 min 15,9 C 18,9 C 2,3 km/h
02.07.2020 07:58 18,8 C 18,5 C 83 % 1008,1 hPa 0,0 l/m 0,0 km/h N 360 0 min 15,8 C 18,8 C 0,0 km/h
02.07.2020 07:53 18,9 C 18,4 C 83 % 1008,1 hPa 0,0 l/m 0,0 km/h SW 225 0 min 15,9 C 18,9 C 0,0 km/h
02.07.2020 07:48 18,8 C 18,4 C 83 % 1008,1 hPa 0,0 l/m 0,2 km/h SW 225 0 min 15,8 C 18,8 C 0,0 km/h
02.07.2020 07:43 18,6 C 18,3 C 83 % 1008,1 hPa 0,0 l/m 0,2 km/h O-SO 112 0 min 15,7 C 18,6 C 0,0 km/h
02.07.2020 07:38 18,5 C 18,3 C 84 % 1008,1 hPa 0,0 l/m 0,2 km/h SW 225 0 min 15,7 C 18,5 C 3,4 km/h
02.07.2020 07:33 18,5 C 18,3 C 84 % 1008,1 hPa 0,0 l/m 0,0 km/h S-SO 157 0 min 15,7 C 18,5 C 0,0 km/h
02.07.2020 07:28 18,5 C 18,3 C 84 % 1008,1 hPa 0,0 l/m 0,0 km/h O 90 0 min 15,7 C 18,5 C 0,0 km/h
02.07.2020 07:23 18,4 C 18,2 C 84 % 1007,7 hPa 0,0 l/m 0,0 km/h S 180 0 min 15,6 C 18,4 C 0,0 km/h
02.07.2020 07:18 18,4 C 18,1 C 84 % 1007,7 hPa 0,0 l/m 0,0 km/h S 180 0 min 15,6 C 18,4 C 0,0 km/h
02.07.2020 07:13 18,3 C 18,1 C 83 % 1007,7 hPa 0,0 l/m 0,0 km/h S-SO 157 0 min 15,4 C 18,3 C 0,0 km/h
02.07.2020 07:08 18,4 C 18,1 C 83 % 1007,7 hPa 0,0 l/m 0,0 km/h W-SW 247 0 min 15,5 C 18,4 C 0,0 km/h
02.07.2020 07:03 18,5 C 18,3 C 84 % 1007,4 hPa 0,0 l/m 0,0 km/h NW 315 0 min 15,7 C 18,5 C 0,0 km/h
02.07.2020 06:58 18,4 C 18,2 C 84 % 1007,4 hPa 0,0 l/m 0,0 km/h S 180 0 min 15,6 C 18,4 C 0,0 km/h
02.07.2020 06:53 18,3 C 18,1 C 84 % 1007,4 hPa 0,0 l/m 0,0 km/h SO 135 0 min 15,5 C 18,3 C 0,0 km/h
02.07.2020 06:48 18,3 C 18,1 C 84 % 1007,4 hPa 0,0 l/m 0,0 km/h O 90 0 min 15,5 C 18,3 C 0,0 km/h
02.07.2020 06:43 18,3 C 18,1 C 84 % 1007,6 hPa 0,0 l/m 0,0 km/h SO 135 0 min 15,5 C 18,3 C 0,0 km/h
02.07.2020 06:38 18,3 C 18,0 C 84 % 1007,6 hPa 0,0 l/m 0,0 km/h SO 135 0 min 15,5 C 18,3 C 0,0 km/h
02.07.2020 06:33 18,3 C 18,1 C 84 % 1007,6 hPa 0,0 l/m 0,0 km/h SO 135 0 min 15,5 C 18,3 C 0,0 km/h
02.07.2020 06:28 18,3 C 17,9 C 84 % 1007,6 hPa 0,0 l/m 0,0 km/h W-SW 247 0 min 15,5 C 18,3 C 0,0 km/h
02.07.2020 06:23 18,3 C 17,9 C 84 % 1007,4 hPa 0,0 l/m 0,0 km/h S-SW 202 0 min 15,5 C 18,3 C 0,0 km/h
02.07.2020 06:18 18,3 C 18,0 C 84 % 1007,4 hPa 0,0 l/m 0,0 km/h O-SO 112 0 min 15,5 C 18,3 C 0,0 km/h
02.07.2020 06:13 18,2 C 18,0 C 84 % 1007,4 hPa 0,0 l/m 0,0 km/h O-SO 112 0 min 15,4 C 18,2 C 0,0 km/h
02.07.2020 06:08 18,3 C 18,0 C 84 % 1007,4 hPa 0,0 l/m 0,0 km/h W 270 0 min 15,5 C 18,3 C 0,0 km/h
02.07.2020 06:03 18,3 C 18,1 C 84 % 1007,2 hPa 0,0 l/m 0,0 km/h W 270 0 min 15,5 C 18,3 C 0,0 km/h
02.07.2020 05:58 18,3 C 18,2 C 84 % 1007,2 hPa 0,0 l/m 0,0 km/h SW 225 0 min 15,5 C 18,3 C 0,0 km/h
02.07.2020 05:53 18,4 C 18,2 C 84 % 1007,2 hPa 0,0 l/m 0,0 km/h O-NO 67 0 min 15,6 C 18,4 C 0,0 km/h
02.07.2020 05:48 18,5 C 18,3 C 84 % 1007,2 hPa 0,0 l/m 0,0 km/h O-NO 67 0 min 15,7 C 18,5 C 0,0 km/h
02.07.2020 05:43 18,5 C 18,3 C 84 % 1007,4 hPa 0,0 l/m 0,0 km/h O-SO 112 0 min 15,7 C 18,5 C 0,0 km/h
02.07.2020 05:38 18,5 C 18,3 C 84 % 1007,4 hPa 0,0 l/m 0,0 km/h NW 315 0 min 15,7 C 18,5 C 0,0 km/h
02.07.2020 05:33 18,5 C 18,5 C 84 % 1007,4 hPa 0,0 l/m 0,0 km/h NW 315 0 min 15,7 C 18,5 C 0,0 km/h
02.07.2020 05:28 18,6 C 18,5 C 84 % 1007,4 hPa 0,0 l/m 0,0 km/h S-SO 157 0 min 15,8 C 18,6 C 0,0 km/h
02.07.2020 05:23 18,7 C 18,5 C 84 % 1007,2 hPa 0,0 l/m 0,0 km/h W-SW 247 0 min 15,9 C 18,7 C 0,0 km/h
02.07.2020 05:18 18,7 C 18,7 C 84 % 1007,2 hPa 0,0 l/m 0,0 km/h SW 225 0 min 15,9 C 18,7 C 0,0 km/h
02.07.2020 05:13 18,7 C 18,6 C 84 % 1007,2 hPa 0,0 l/m 0,0 km/h SO 135 0 min 15,9 C 18,7 C 0,0 km/h
02.07.2020 05:08 18,7 C 18,7 C 84 % 1007,2 hPa 0,0 l/m 0,0 km/h SO 135 0 min 15,9 C 18,7 C 0,0 km/h
02.07.2020 05:03 18,7 C 18,7 C 84 % 1006,9 hPa 0,0 l/m 0,0 km/h S-SW 202 0 min 15,9 C 18,7 C 0,0 km/h
02.07.2020 04:58 18,8 C 18,7 C 84 % 1006,9 hPa 0,0 l/m 0,0 km/h W-NW 292 0 min 16,0 C 18,8 C 0,0 km/h
02.07.2020 04:53 18,8 C 18,8 C 84 % 1006,9 hPa 0,0 l/m 0,0 km/h NW 315 0 min 16,0 C 18,8 C 0,0 km/h
02.07.2020 04:48 18,8 C 18,8 C 84 % 1006,9 hPa 0,0 l/m 0,0 km/h W-SW 247 0 min 16,0 C 18,8 C 0,0 km/h
02.07.2020 04:43 18,8 C 18,9 C 84 % 1007,2 hPa 0,0 l/m 0,0 km/h W-SW 247 0 min 16,0 C 18,8 C 0,0 km/h
02.07.2020 04:38 18,8 C 18,8 C 84 % 1007,2 hPa 0,0 l/m 0,0 km/h SO 135 0 min 16,0 C 18,8 C 0,0 km/h
02.07.2020 04:33 18,9 C 18,9 C 85 % 1007,2 hPa 0,0 l/m 0,0 km/h N-NW 337 0 min 16,3 C 18,9 C 0,0 km/h
02.07.2020 04:28 18,9 C 18,9 C 85 % 1007,2 hPa 0,0 l/m 0,0 km/h S 180 0 min 16,3 C 18,9 C 0,0 km/h
02.07.2020 04:23 18,9 C 19,0 C 85 % 1007,2 hPa 0,0 l/m 0,0 km/h S 180 0 min 16,3 C 18,9 C 0,0 km/h
02.07.2020 04:18 18,9 C 19,1 C 85 % 1007,2 hPa 0,0 l/m 0,0 km/h S-SO 157 0 min 16,3 C 18,9 C 0,0 km/h
02.07.2020 04:13 19,0 C 19,0 C 85 % 1007,2 hPa 0,0 l/m 0,0 km/h S 180 0 min 16,4 C 19,0 C 0,0 km/h
02.07.2020 04:08 19,1 C 19,1 C 85 % 1007,2 hPa 0,0 l/m 0,0 km/h SO 135 0 min 16,5 C 19,1 C 0,0 km/h
02.07.2020 04:03 19,1 C 19,1 C 85 % 1007,2 hPa 0,0 l/m 0,0 km/h W-SW 247 0 min 16,5 C 19,1 C 0,0 km/h
02.07.2020 03:58 19,1 C 19,1 C 85 % 1007,2 hPa 0,0 l/m 0,0 km/h W-SW 247 0 min 16,5 C 19,1 C 0,0 km/h
02.07.2020 03:53 19,1 C 19,1 C 85 % 1007,2 hPa 0,0 l/m 0,0 km/h SO 135 0 min 16,5 C 19,1 C 0,0 km/h
02.07.2020 03:48 19,2 C 19,1 C 85 % 1007,2 hPa 0,0 l/m 0,0 km/h S 180 0 min 16,6 C 19,2 C 0,0 km/h
02.07.2020 03:43 19,2 C 19,1 C 85 % 1007,1 hPa 0,0 l/m 0,0 km/h W 270 0 min 16,6 C 19,2 C 0,0 km/h
02.07.2020 03:38 19,2 C 19,1 C 85 % 1007,1 hPa 0,0 l/m 0,0 km/h NW 315 0 min 16,6 C 19,2 C 0,0 km/h
02.07.2020 03:33 19,2 C 19,1 C 85 % 1007,1 hPa 0,0 l/m 0,0 km/h NW 315 0 min 16,6 C 19,2 C 0,0 km/h
02.07.2020 03:28 19,2 C 19,3 C 85 % 1007,1 hPa 0,0 l/m 0,0 km/h NW 315 0 min 16,6 C 19,2 C 0,0 km/h
02.07.2020 03:23 19,3 C 19,3 C 85 % 1007,1 hPa 0,0 l/m 0,0 km/h NW 315 0 min 16,7 C 19,3 C 0,0 km/h
02.07.2020 03:18 19,3 C 19,3 C 85 % 1007,1 hPa 0,0 l/m 0,0 km/h W-SW 247 0 min 16,7 C 19,3 C 0,0 km/h
02.07.2020 03:13 19,3 C 19,4 C 85 % 1007,1 hPa 0,0 l/m 0,0 km/h S 180 0 min 16,7 C 19,3 C 0,0 km/h
02.07.2020 03:08 19,3 C 19,4 C 84 % 1007,1 hPa 0,7 l/m 0,0 km/h O-SO 112 0 min 16,5 C 19,3 C 0,0 km/h
02.07.2020 03:03 19,3 C 19,3 C 84 % 1007,2 hPa 0,0 l/m 0,0 km/h SO 135 0 min 16,5 C 19,3 C 0,0 km/h
02.07.2020 02:58 19,3 C 19,5 C 84 % 1007,2 hPa 0,0 l/m 0,0 km/h O-SO 112 0 min 16,5 C 19,3 C 0,0 km/h
02.07.2020 02:53 19,3 C 19,4 C 84 % 1007,2 hPa 0,0 l/m 0,0 km/h W 270 0 min 16,5 C 19,3 C 0,0 km/h
02.07.2020 02:48 19,4 C 19,4 C 84 % 1007,2 hPa 0,0 l/m 0,0 km/h N-NO 22 0 min 16,6 C 19,4 C 0,0 km/h
02.07.2020 02:43 19,4 C 19,5 C 84 % 1007,2 hPa 0,0 l/m 0,0 km/h W 270 0 min 16,6 C 19,4 C 0,0 km/h
02.07.2020 02:38 19,4 C 19,5 C 84 % 1007,2 hPa 0,0 l/m 0,0 km/h SW 225 0 min 16,6 C 19,4 C 0,0 km/h
02.07.2020 02:33 19,4 C 19,4 C 83 % 1007,2 hPa 0,7 l/m 0,0 km/h SO 135 0 min 16,4 C 19,4 C 0,0 km/h
02.07.2020 02:28 19,5 C 19,5 C 83 % 1007,2 hPa 0,0 l/m 0,0 km/h SW 225 0 min 16,5 C 19,5 C 0,0 km/h
02.07.2020 02:23 19,5 C 19,5 C 83 % 1007,1 hPa 0,0 l/m 0,0 km/h S-SW 202 0 min 16,5 C 19,5 C 0,0 km/h
02.07.2020 02:18 19,4 C 19,5 C 83 % 1007,1 hPa 0,0 l/m 0,0 km/h O-SO 112 0 min 16,4 C 19,4 C 0,0 km/h
02.07.2020 02:13 19,4 C 19,5 C 83 % 1007,1 hPa 0,0 l/m 0,0 km/h W-SW 247 0 min 16,4 C 19,4 C 0,0 km/h
02.07.2020 02:08 19,4 C 19,5 C 83 % 1007,1 hPa 0,0 l/m 0,0 km/h O 90 0 min 16,4 C 19,4 C 0,0 km/h
02.07.2020 02:03 19,4 C 19,7 C 83 % 1006,9 hPa 0,0 l/m 0,0 km/h S-SO 157 0 min 16,4 C 19,4 C 0,0 km/h
02.07.2020 01:58 19,5 C 19,6 C 82 % 1006,9 hPa 0,0 l/m 0,0 km/h SO 135 0 min 16,3 C 19,5 C 0,0 km/h
02.07.2020 01:53 19,5 C 19,5 C 82 % 1006,9 hPa 0,0 l/m 0,0 km/h S 180 0 min 16,3 C 19,5 C 0,0 km/h
02.07.2020 01:48 19,5 C 19,6 C 82 % 1006,9 hPa 0,0 l/m 0,0 km/h S 180 0 min 16,3 C 19,5 C 0,0 km/h
02.07.2020 01:43 19,5 C 19,6 C 81 % 1006,8 hPa 0,0 l/m 0,0 km/h O 90 0 min 16,1 C 19,5 C 0,0 km/h
02.07.2020 01:38 19,6 C 19,6 C 81 % 1006,8 hPa 0,0 l/m 0,0 km/h O 90 0 min 16,2 C 19,6 C 0,0 km/h
02.07.2020 01:33 19,6 C 19,6 C 81 % 1006,8 hPa 0,0 l/m 0,0 km/h S 180 0 min 16,2 C 19,6 C 0,0 km/h
02.07.2020 01:28 19,6 C 19,6 C 81 % 1006,8 hPa 0,0 l/m 0,0 km/h O-SO 112 0 min 16,2 C 19,6 C 0,0 km/h
02.07.2020 01:23 19,7 C 19,7 C 81 % 1006,6 hPa 0,0 l/m 0,0 km/h W-SW 247 0 min 16,3 C 19,7 C 0,0 km/h
02.07.2020 01:18 19,7 C 19,8 C 81 % 1006,6 hPa 0,0 l/m 0,0 km/h W-SW 247 0 min 16,3 C 19,7 C 0,0 km/h
02.07.2020 01:13 19,8 C 19,9 C 81 % 1006,6 hPa 0,0 l/m 0,0 km/h O-SO 112 0 min 16,4 C 19,8 C 0,0 km/h
02.07.2020 01:08 19,8 C 20,0 C 81 % 1006,6 hPa 0,0 l/m 0,0 km/h O-SO 112 0 min 16,4 C 19,8 C 0,0 km/h
02.07.2020 01:03 19,9 C 20,0 C 81 % 1006,8 hPa 0,0 l/m 0,0 km/h SO 135 0 min 16,5 C 19,9 C 0,0 km/h
02.07.2020 00:58 20,0 C 19,9 C 81 % 1006,8 hPa 0,0 l/m 0,0 km/h S 180 0 min 16,6 C 20,0 C 0,0 km/h
02.07.2020 00:53 20,1 C 20,0 C 81 % 1006,8 hPa 0,0 l/m 0,0 km/h NW 315 0 min 16,7 C 20,1 C 0,0 km/h
02.07.2020 00:48 20,2 C 20,1 C 81 % 1006,8 hPa 0,0 l/m 0,0 km/h O-SO 112 0 min 16,8 C 20,2 C 0,0 km/h
02.07.2020 00:43 20,2 C 20,1 C 80 % 1006,6 hPa 0,0 l/m 0,0 km/h W-SW 247 0 min 16,6 C 20,2 C 0,0 km/h
02.07.2020 00:38 20,2 C 20,3 C 80 % 1006,6 hPa 0,0 l/m 0,0 km/h W-SW 247 0 min 16,6 C 20,2 C 0,0 km/h
02.07.2020 00:33 20,3 C 20,4 C 80 % 1006,6 hPa 0,0 l/m 0,0 km/h W-SW 247 0 min 16,7 C 20,3 C 0,0 km/h
02.07.2020 00:28 20,3 C 20,5 C 79 % 1006,6 hPa 0,0 l/m 0,0 km/h W-SW 247 0 min 16,5 C 20,3 C 0,0 km/h
02.07.2020 00:23 20,3 C 20,6 C 79 % 1006,4 hPa 0,0 l/m 0,0 km/h O-SO 112 0 min 16,5 C 20,3 C 0,0 km/h
02.07.2020 00:18 20,5 C 20,5 C 79 % 1006,4 hPa 0,0 l/m 0,0 km/h SW 225 0 min 16,7 C 20,5 C 0,0 km/h
02.07.2020 00:13 20,5 C 20,5 C 79 % 1006,4 hPa 0,0 l/m 0,0 km/h N-NW 337 0 min 16,7 C 20,5 C 0,0 km/h
02.07.2020 00:08 20,7 C 20,7 C 77 % 1006,4 hPa 0,0 l/m 0,0 km/h S-SO 157 0 min 16,5 C 20,7 C 0,0 km/h
02.07.2020 00:03 20,7 C 20,7 C 77 % 1006,1 hPa 0,0 l/m 0,0 km/h S-SO 157 0 min 16,5 C 20,7 C 0,0 km/h
_ Min-Zeit 06:13 06:23 14:08 00:03 - 00:03 - - - 14:23 06:13 00:03
Minimum _ 18,2 C 17,9 C 47 % 1006,1 hPa - 0,0 km/h - - - 14,4 C 18,2 C 0,0 km/h
_ Max-Zeit 14:53 15:48 03:13 21:30 17:03 09:53 - - 10:08 18:28 14:53 16:48
Maximum _ 27,4 C 27,1 C 85 % 1009,8 hPa 2,1 l/m 3,7 km/h
N-NO
- - 5 min 18,0 C 27,4 C 15,6 km/h
W-SW
Durchschnitt _ 21,7 C 21,0 C 72 % 1008,1 hPa #6,9 l/m 0,6 km/h S - #5:35 h 16,2 C 21,7 C 1,1 km/h